CW4869 Weather Reports


Display with metric or nautical units.
time (UTC)temp
F
wind
direction
speed
MPH
gust
MPH
rain 1hr
in
rain 24hr
in
rain mn
in
humidity
%
barometer
mb
20180918211926 69 59 3.0 6.0 0.00 0.02 0.02 77 1012.5
20180918211457 69 26 4.0 6.0 0.00 0.02 0.02 77 1012.4
20180918210932 69 55 3.0 6.0 0.00 0.02 0.02 77 1012.5
20180918210246 69 49 3.0 6.0 0.00 0.02 0.02 76 1012.4
20180918204402 70 58 2.0 5.0 0.00 0.02 0.02 76 1012.6
20180918202926 70 71 2.0 5.0 0.00 0.02 0.02 75 1012.6
20180918202430 70 20 2.0 6.0 0.00 0.02 0.02 75 1012.7
20180918201921 70 51 5.0 6.0 0.00 0.02 0.02 75 1012.7
20180918201425 70 48 2.0 6.0 0.00 0.02 0.02 76 1012.7
20180918200925 70 57 3.0 7.0 0.00 0.02 0.02 76 1012.6
20180918200426 70 38 2.0 6.0 0.00 0.02 0.02 76 1012.6
20180918195936 70 45 4.0 6.0 0.00 0.02 0.02 75 1012.6
20180918195550 70 25 3.0 5.0 0.00 0.02 0.02 75 1012.7
20180918194933 70 26 1.0 6.0 0.00 0.02 0.02 75 1012.7
20180918194438 70 17 3.0 6.0 0.00 0.02 0.02 75 1012.7
20180918193928 70 45 5.0 6.0 0.00 0.02 0.02 75 1012.8
20180918193432 70 46 3.0 6.0 0.00 0.02 0.02 75 1012.9
20180918192923 70 30 3.0 6.0 0.00 0.02 0.02 76 1012.8
20180918192429 70 45 4.0 8.0 0.00 0.02 0.02 76 1012.9
20180918191934 70 44 3.0 8.0 0.00 0.02 0.02 76 1012.8
20180918191439 69 51 3.0 7.0 0.00 0.02 0.02 77 1012.9
20180918190924 70 41 3.0 9.0 0.00 0.02 0.02 75 1012.8
20180918190429 70 102 2.0 9.0 0.00 0.02 0.02 76 1012.7
20180918185937 70 78 4.0 9.0 0.00 0.02 0.02 76 1012.6
20180918185441 70 11 4.0 9.0 0.00 0.02 0.02 76 1012.6
20180918184932 70 49 3.0 9.0 0.00 0.02 0.02 75 1012.7
20180918184434 70 59 3.0 10.0 0.01 0.02 0.02 76 1012.9
20180918183939 70 82 3.0 10.0 0.01 0.02 0.02 76 1013.0
20180918183425 70 51 4.0 10.0 0.02 0.02 0.02 76 1013.0
20180918182931 70 51 2.0 9.0 0.02 0.02 0.02 75 1013.0
20180918182435 70 5 4.0 9.0 0.02 0.02 0.02 75 1013.1
20180918181927 70 59 4.0 10.0 0.02 0.02 0.02 75 1013.0
20180918181430 70 51 5.0 10.0 0.02 0.02 0.02 74 1013.1
20180918180436 69 29 5.0 12.0 0.02 0.02 0.02 76 1013.2
20180918175926 69 11 4.0 12.0 0.02 0.02 0.02 76 1013.4
20180918175432 69 23 6.0 10.0 0.02 0.02 0.02 76 1013.5
20180918174920 69 26 5.0 9.0 0.02 0.02 0.02 77 1013.5
20180918174425 69 17 5.0 9.0 0.01 0.01 0.01 77 1013.5
20180918173931 69 360 4.0 9.0 0.01 0.01 0.01 78 1013.5
20180918173437 69 50 5.0 9.0 0.00 0.00 0.00 77 1013.4
20180918172926 69 25 2.0 10.0 0.00 0.00 0.00 79 1013.3
20180918172432 69 48 5.0 10.0 0.00 0.00 0.00 78 1013.3
20180918171922 69 14 5.0 10.0 0.00 0.00 0.00 79 1013.2
20180918171427 69 13 5.0 9.0 0.00 0.00 0.00 79 1013.1
20180918170931 69 40 4.0 9.0 0.00 0.00 0.00 79 1013.1
20180918170434 69 46 4.0 9.0 0.00 0.00 0.00 79 1013.1
20180918165926 68 74 4.0 10.0 0.00 0.00 0.00 79 1013.1
20180918165426 68 48 5.0 10.0 0.00 0.00 0.00 79 1013.2
20180918164935 68 5 3.0 9.0 0.00 0.00 0.00 80 1013.3
20180918164440 68 68 4.0 9.0 0.00 0.00 0.00 80 1013.3
20180918163929 68 5 3.0 11.0 0.00 0.00 0.00 81 1013.3
20180918163433 68 338 6.0 11.0 0.00 0.00 0.00 81 1013.3
20180918162922 68 51 6.0 10.0 0.00 0.00 0.00 81 1013.3
20180918162427 68 40 5.0 13.0 0.00 0.00 0.00 81 1013.4
20180918161937 68 34 7.0 13.0 0.00 0.00 0.00 82 1013.5
20180918161439 67 76 5.0 12.0 0.00 0.00 0.00 82 1013.4
20180918160437 67 51 6.0 11.0 0.00 0.00 0.00 82 1013.6
20180918155927 67 39 6.0 12.0 0.00 0.00 0.00 82 1013.7
20180918155433 67 10 5.0 12.0 0.00 0.00 0.00 83 1013.7
20180918154924 67 23 4.0 13.0 0.00 0.00 0.00 83 1013.7
20180918154429 67 34 9.0 13.0 0.00 0.00 0.00 83 1013.8
20180918153939 67 32 7.0 12.0 0.00 0.00 0.00 83 1013.9
20180918153424 66 44 5.0 12.0 0.00 0.00 0.00 83 1013.8
20180918152935 66 19 6.0 12.0 0.00 0.00 0.00 82 1013.8
20180918152438 66 28 5.0 11.0 0.00 0.00 0.00 83 1013.8
20180918151926 66 30 5.0 12.0 0.00 0.00 0.00 83 1013.8
20180918151425 66 360 4.0 12.0 0.00 0.00 0.00 84 1013.9
20180918150928 66 65 4.0 11.0 0.00 0.00 0.00 84 1013.9
20180918150430 66 34 5.0 10.0 0.00 0.00 0.00 84 1013.8
20180918145938 65 18 4.0 11.0 0.00 0.00 0.00 84 1013.7
20180918145440 65 20 4.0 11.0 0.00 0.00 0.00 84 1013.7
20180918144931 65 43 2.0 10.0 0.00 0.00 0.00 84 1013.7
20180918144436 65 14 4.0 10.0 0.00 0.00 0.00 84 1013.7
20180918143925 65 27 5.0 11.0 0.00 0.00 0.00 83 1013.7
20180918143430 65 25 5.0 11.0 0.00 0.00 0.00 83 1013.7
20180918142922 65 30 6.0 10.0 0.00 0.00 0.00 83 1013.6
20180918142426 65 9 6.0 9.0 0.00 0.00 0.00 84 1013.5
20180918141929 65 360 3.0 8.0 0.00 0.00 0.00 83 1013.4
20180918141438 65 10 4.0 12.0 0.00 0.00 0.00 83 1013.3
20180918140938 65 344 7.0 12.0 0.00 0.00 0.00 83 1013.4
20180918140443 65 355 5.0 10.0 0.00 0.00 0.00 84 1013.3
20180918135932 65 19 5.0 12.0 0.00 0.00 0.00 84 1013.2
20180918135441 65 22 5.0 12.0 0.00 0.00 0.00 84 1013.2
20180918134928 65 5 3.0 11.0 0.00 0.00 0.00 84 1013.1
20180918134433 65 21 5.0 11.0 0.00 0.00 0.00 84 1013.2
20180918133922 64 30 5.0 11.0 0.00 0.00 0.00 84 1013.2
20180918133429 64 12 6.0 11.0 0.00 0.00 0.00 84 1013.1
20180918132948 64 344 7.0 11.0 0.00 0.00 0.00 84 1013.0
20180918132624 64 11 5.0 10.0 0.00 0.00 0.00 83 1012.8
20180918132014 64 46 5.0 9.0 0.00 0.00 0.00 83 1012.7
20180918094434 66 47 5.0 9.0 0.00 0.00 0.00 83 1012.1
20180918093440 66 21 3.0 10.0 0.00 0.00 0.00 82 1011.9
20180918092930 66 14 4.0 9.0 0.00 0.00 0.00 82 1011.9
20180918092434 66 24 5.0 11.0 0.00 0.00 0.00 82 1011.9
20180918091424 66 9 7.0 13.0 0.00 0.00 0.00 82 1011.8
20180918090928 66 19 5.0 13.0 0.00 0.00 0.00 82 1011.9
20180918090433 67 30 6.0 13.0 0.00 0.00 0.00 82 1012.0
20180918085920 67 11 8.0 16.0 0.00 0.00 0.00 82 1012.1
20180918085426 67 28 6.0 16.0 0.00 0.00 0.00 82 1012.0
20180918084937 67 360 5.0 12.0 0.00 0.00 0.00 81 1012.0
20180918084422 67 28 7.0 12.0 0.00 0.00 0.00 81 1011.9
20180918083928 67 345 4.0 11.0 0.00 0.00 0.00 81 1011.7
20180918083432 67 13 5.0 12.0 0.00 0.00 0.00 81 1011.8
20180918082920 67 33 6.0 12.0 0.00 0.00 0.00 80 1011.7
20180918082425 67 360 5.0 13.0 0.00 0.00 0.00 81 1011.7
20180918081935 67 48 6.0 13.0 0.00 0.00 0.00 81 1011.7
20180918081435 67 63 7.0 13.0 0.00 0.00 0.00 81 1011.7
20180918080922 67 37 8.0 13.0 0.00 0.00 0.00 81 1011.7
20180918080426 67 71 7.0 15.0 0.00 0.00 0.00 81 1011.8
20180918075935 67 26 5.0 15.0 0.00 0.00 0.00 81 1011.8
20180918075438 68 14 7.0 13.0 0.00 0.00 0.00 81 1011.9
20180918074923 68 25 7.0 15.0 0.00 0.00 0.00 80 1012.1
20180918074427 68 22 7.0 15.0 0.00 0.00 0.00 80 1012.1
20180918073935 68 24 7.0 17.0 0.00 0.00 0.00 80 1012.0
20180918073439 68 33 5.0 17.0 0.00 0.00 0.00 80 1012.0
20180918072930 68 32 8.0 17.0 0.00 0.00 0.00 80 1012.0
20180918072434 68 355 9.0 17.0 0.00 0.00 0.00 82 1011.8
20180918071923 68 11 6.0 16.0 0.00 0.00 0.00 82 1011.9
20180918071423 68 10 7.0 15.0 0.00 0.00 0.00 82 1011.9
20180918070927 68 61 7.0 18.0 0.00 0.00 0.00 82 1011.9
20180918070430 68 36 7.0 18.0 0.00 0.00 0.00 82 1011.9
20180918065934 68 53 9.0 18.0 0.00 0.00 0.00 81 1011.9
20180918065436 68 42 10.0 18.0 0.00 0.00 0.00 81 1011.8
20180918064927 68 38 9.0 19.0 0.00 0.00 0.00 81 1011.9
20180918064431 68 19 8.0 19.0 0.00 0.00 0.00 82 1011.9
20180918063939 68 21 7.0 15.0 0.00 0.00 0.00 82 1011.9
20180918063442 69 49 8.0 18.0 0.00 0.00 0.00 82 1012.0
20180918062931 69 24 9.0 18.0 0.00 0.00 0.00 83 1011.9
20180918062436 69 337 6.0 13.0 0.00 0.00 0.00 86 1011.9
20180918061925 69 9 8.0 13.0 0.00 0.00 0.00 85 1012.0
20180918061429 69 26 8.0 14.0 0.00 0.00 0.00 85 1011.8
20180918060935 69 45 6.0 14.0 0.00 0.00 0.00 86 1011.8
20180918060437 69 71 5.0 14.0 0.00 0.00 0.00 85 1011.6
20180918055927 69 15 7.0 18.0 0.00 0.00 0.00 85 1011.6
20180918055434 69 21 7.0 18.0 0.00 0.00 0.00 85 1011.6
20180918054925 69 44 8.0 16.0 0.00 0.00 0.00 84 1011.6
20180918054428 69 47 9.0 17.0 0.00 0.00 0.00 84 1011.5
20180918053937 70 57 9.0 19.0 0.00 0.00 0.00 84 1011.6
20180918053440 70 48 9.0 19.0 0.00 0.00 0.00 84 1011.6
20180918052928 70 52 9.0 19.0 0.00 0.00 0.00 84 1011.5
20180918051933 70 342 9.0 17.0 0.00 0.00 0.00 85 1011.5
20180918051437 70 65 7.0 17.0 0.00 0.00 0.00 84 1011.5
20180918050923 70 113 7.0 14.0 0.00 0.00 0.00 85 1011.5
20180918050428 71 11 7.0 15.0 0.00 0.00 0.00 85 1011.6
20180918045938 71 61 8.0 15.0 0.00 0.00 0.00 85 1011.6
20180918045442 71 60 7.0 15.0 0.00 0.00 0.00 84 1011.6
20180918044930 71 34 7.0 16.0 0.00 0.00 0.00 83 1011.6
20180918044433 72 34 8.0 16.0 0.00 0.00 0.00 83 1011.6
20180918043939 72 71 5.0 19.0 0.00 0.00 0.00 82 1011.5
20180918043438 72 64 11.0 19.0 0.00 0.00 0.00 81 1011.5
20180918042926 73 93 8.0 18.0 0.00 0.00 0.00 81 1011.6
20180918042429 73 46 7.0 13.0 0.00 0.00 0.00 82 1011.8
20180918041938 73 65 6.0 16.0 0.00 0.00 0.00 81 1011.6
20180918041423 74 28 6.0 16.0 0.00 0.00 0.00 81 1011.6
20180918040926 74 65 8.0 16.0 0.00 0.00 0.00 81 1011.7
20180918040430 75 351 3.0 5.0 0.00 0.00 0.00 83 1011.5
20180918035433 75 294 2.0 5.0 0.00 0.00 0.00 83 1011.1
20180918034921 75 294 2.0 7.0 0.00 0.00 0.00 83 1011.1
20180918034426 75 272 2.0 7.0 0.00 0.00 0.00 83 1011.0
20180918033935 75 271 1.0 6.0 0.00 0.00 0.00 82 1011.0
20180918033658 75 273 2.0 6.0 0.00 0.00 0.00 82 1011.0
20180918032926 75 271 3.0 8.0 0.00 0.00 0.00 82 1011.0
20180918031947 74 288 3.0 7.0 0.00 0.00 0.00 82 1010.8
20180918031601 74 244 1.0 2.0 0.00 0.00 0.00 82 1010.6
20180918030432 74 244 0.0 1.0 0.00 0.00 0.00 83 1010.6
20180918025901 75 244 1.0 4.0 0.00 0.00 0.00 82 1010.4
20180918022424 75 244 0.0 0.0 0.00 0.00 0.00 82 1010.3
20180918021930 75 244 0.0 3.0 0.00 0.00 0.00 82 1010.3
20180918021435 75 244 1.0 3.0 0.00 0.00 0.00 83 1010.5
20180918020921 76 244 0.0 4.0 0.00 0.00 0.00 83 1010.3
20180918020426 76 244 1.0 3.0 0.00 0.00 0.00 83 1010.4
20180918015936 76 244 0.0 1.0 0.00 0.00 0.00 83 1010.3
20180918015421 76 244 0.0 2.0 0.00 0.00 0.00 83 1010.4
20180918014934 76 244 1.0 3.0 0.00 0.00 0.00 83 1010.4
20180918014438 76 244 2.0 3.0 0.00 0.00 0.00 83 1010.2
20180918013929 76 244 2.0 3.0 0.00 0.00 0.00 84 1010.2
20180918013434 76 244 1.0 3.0 0.00 0.00 0.00 83 1010.2
20180918012922 76 244 1.0 3.0 0.00 0.00 0.00 84 1010.1
20180918012426 76 244 2.0 3.0 0.00 0.00 0.00 84 1010.0
20180918011931 76 244 2.0 3.0 0.00 0.00 0.00 83 1010.0
20180918011433 77 244 1.0 2.0 0.00 0.00 0.00 84 1010.0
20180918010938 77 244 0.0 2.0 0.00 0.00 0.00 84 1010.0
20180918010423 77 244 1.0 2.0 0.00 0.00 0.00 84 1009.9
20180918005934 77 244 0.0 2.0 0.00 0.00 0.00 84 1009.9
20180918005439 77 244 2.0 2.0 0.00 0.00 0.00 84 1009.9
20180918004929 77 244 1.0 2.0 0.00 0.00 0.00 84 1009.9
20180918004434 77 244 2.0 3.0 0.00 0.00 0.00 85 1009.8
20180918003924 77 244 2.0 3.0 0.00 0.00 0.00 85 1009.8
20180918002934 77 244 0.0 0.0 0.00 0.00 0.00 85 1009.8
20180918002440 77 244 0.0 0.0 0.00 0.00 0.00 82 1009.8
20180918001932 78 244 0.0 0.0 0.00 0.00 0.00 82 1009.8
20180918001437 78 244 0.0 0.0 0.00 0.00 0.00 81 1009.9
20180918000922 78 244 0.0 0.0 0.00 0.00 0.00 81 1009.9
20180918000428 78 244 0.0 0.0 0.00 0.00 0.00 81 1009.9
20180917235939 78 244 0.0 0.0 0.00 0.00 0.00 81 1009.9
20180917235423 78 244 0.0 0.0 0.00 0.00 0.00 81 1009.9
20180917234929 79 244 0.0 0.0 0.00 0.00 0.00 82 1009.9
20180917234435 79 244 0.0 0.0 0.00 0.00 0.00 81 1009.8
20180917233921 79 244 0.0 0.0 0.00 0.00 0.00 81 1009.8
20180917233427 79 244 0.0 0.0 0.00 0.00 0.00 81 1009.8
20180917232937 79 244 0.0 0.0 0.00 0.00 0.00 81 1009.9
20180917232422 79 244 0.0 2.0 0.00 0.00 0.00 82 1009.9
20180917231931 79 244 1.0 2.0 0.00 0.00 0.00 81 1009.9
20180917231433 79 244 0.0 0.0 0.00 0.00 0.00 80 1010.0
20180917230936 79 244 0.0 2.0 0.00 0.00 0.00 80 1010.0
20180917230513 79 244 1.0 2.0 0.00 0.00 0.00 79 1010.0
20180917225927 79 244 2.0 2.0 0.00 0.00 0.00 79 1010.1
20180917225429 80 244 1.0 2.0 0.00 0.00 0.00 78 1010.1
20180917224942 80 244 2.0 3.0 0.00 0.00 0.00 77 1010.1
20180917224757 80 244 2.0 3.0 0.00 0.00 0.00 78 1010.1
20180917224222 80 244 2.0 3.0 0.00 0.00 0.00 78 1010.0
20180917223712 80 244 0.0 0.0 0.00 0.00 0.00 79 1010.0
20180917220921 80 244 0.0 0.0 0.00 0.00 0.00 77 1010.2
20180917220427 80 244 0.0 0.0 0.00 0.00 0.00 76 1010.1
20180917215932 80 244 0.0 0.0 0.00 0.00 0.00 75 1010.2
20180917215432 80 244 0.0 0.0 0.00 0.00 0.00 73 1010.2
20180917214924 80 244 0.0 0.0 0.00 0.00 0.00 73 1010.3
20180917214430 80 244 0.0 0.0 0.00 0.00 0.00 73 1010.3
20180917213921 80 244 0.0 0.0 0.00 0.00 0.00 75 1010.2
20180917213427 80 244 0.0 0.0 0.00 0.00 0.00 74 1010.2
20180917212937 80 244 0.0 0.0 0.00 0.00 0.00 74 1010.2